Tracking 25686 objects as of 26-May-2022
HD Live streaming from Space Station
objects crossing your sky now

SPOC

Track SPOC now!
10-day predictions
SPOC is classified as:


NORAD ID: 46921
Int'l Code: 1998-067RR
Perigee: 308.1 km
Apogee: 313.5 km
Inclination: 51.6 °
Period: 90.6 minutes
Semi major axis: 6681 km
RCS: Unknown
Launch date: November 20, 1998
Source: United States (US)
Launch site: TYURATAM MISSILE AND SPACE COMPLEX (TTMTR)

Uplink (MHz):
Downlink (MHz): 437.350/2401.300
Beacon (MHz):
Mode: 9k6 GMSK/2Mbps QPSK
Call sign: MOCI-1
Status: Inactive

aabbcc
Your satellite tracking list
Your tracking list is empty




NASA's NSSDC Master Catalog

Two Line Element Set (TLE):
1 46921U 98067RR  22144.81333319  .00341898  00000-0  10985-2 0  9994
2 46921  51.6290  52.2030 0004013 164.7936 195.3191 15.89517465 88245
Source of the keplerian elements: AFSPC